User: anonymous   Login
Location: Ariel
(45.9570°N, 122.5700°W)
Time: 05:14:53
(UTC-08:00)
Language:

UNISAT 6 - Orbit

View from above orbital plane
View from above orbital plane
View from above satellite
View from above satellite

Ground track
Ground track

The orbit data is extracted from the following two-line orbital elements,

1 40012U 14033C   19321.66738749 +.00000157 +00000-0 +30766-4 0  9993
2 40012 097.7343 181.5571 0057687 328.6947 031.0831 14.74033195291074
Epoch (UTC): 17 November 2019 16:01:02
Eccentricity: 0.0057687
inclination: 97.7343°
perigee height: 607 km
apogee height: 689 km
right ascension of ascending node: 181.5571°
argument of perigee: 328.6947°
revolutions per day: 14.74033195
mean anomaly at epoch: 31.0831°
orbit number at epoch: 29107

The dashed part of the orbit path shows where the satellite is in the earth's shadow,  

DLR